| time (UTC) | temp F | wind direction | speed MPH | gust MPH | rain 1hr in | rain 24hr in | rain mn in | humidity % | barometer mb |
| 20260506051339 | 50 | 39 | 3.0 | 9.0 | 0.20 | 0.29 | 0.28 | 92 | 1009.6 |
| 20260506051228 | 50 | 32 | 4.0 | 9.0 | 0.20 | 0.29 | 0.28 | 92 | 1009.6 |
| 20260506050837 | 50 | 33 | 4.0 | 9.0 | 0.20 | 0.28 | 0.26 | 93 | 1009.4 |
| 20260506050336 | 50 | 62 | 2.0 | 9.0 | 0.17 | 0.25 | 0.24 | 93 | 1009.4 |
| 20260506050227 | 50 | 80 | 2.0 | 9.0 | 0.17 | 0.24 | 0.24 | 93 | 1009.5 |
| 20260506044835 | 50 | 125 | 2.0 | 6.0 | 0.13 | 0.20 | 0.19 | 93 | 1009.6 |
| 20260506044355 | 51 | 112 | 2.0 | 5.0 | 0.11 | 0.17 | 0.16 | 92 | 1009.5 |
| 20260506044346 | 51 | 123 | 2.0 | 6.0 | 0.13 | 0.19 | 0.17 | 92 | 1009.6 |
| 20260506044332 | 51 | 122 | 2.0 | 5.0 | 0.13 | 0.19 | 0.17 | 92 | 1009.7 |
| 20260506043605 | 51 | 130 | 1.0 | 6.0 | 0.09 | 0.16 | 0.14 | 92 | 1009.6 |
| 20260506043228 | 51 | 120 | 1.0 | 6.0 | 0.09 | 0.16 | 0.13 | 92 | 1009.7 |
| 20260506043112 | 51 | 132 | 1.0 | 6.0 | 0.07 | 0.15 | 0.12 | 92 | 1009.6 |
| 20260506042349 | 51 | 62 | 2.0 | 8.0 | 0.04 | 0.14 | 0.09 | 93 | 1009.7 |
| 20260506042342 | 51 | 68 | 2.0 | 6.0 | 0.06 | 0.15 | 0.10 | 92 | 1009.7 |
| 20260506042328 | 51 | 76 | 2.0 | 6.0 | 0.05 | 0.15 | 0.09 | 93 | 1009.7 |
| 20260506041337 | 51 | 49 | 2.0 | 8.0 | 0.02 | 0.14 | 0.07 | 93 | 1009.7 |
| 20260506041227 | 50 | 42 | 2.0 | 8.0 | 0.02 | 0.14 | 0.07 | 93 | 1009.8 |
| 20260506040836 | 50 | 33 | 3.0 | 8.0 | 0.02 | 0.14 | 0.06 | 93 | 1009.7 |
| 20260506040335 | 50 | 58 | 3.0 | 8.0 | 0.02 | 0.16 | 0.06 | 93 | 1009.8 |
| 20260506040228 | 50 | 61 | 2.0 | 8.0 | 0.02 | 0.15 | 0.06 | 93 | 1009.8 |
| 20260506035837 | 50 | 80 | 2.0 | 6.0 | 0.02 | 0.16 | 0.06 | 93 | 1009.8 |
| 20260506035336 | 50 | 155 | 1.0 | 4.0 | 0.02 | 0.16 | 0.05 | 93 | 1009.8 |
| 20260506035230 | 50 | 150 | 1.0 | 4.0 | 0.02 | 0.16 | 0.05 | 93 | 1009.8 |
| 20260506034836 | 50 | 144 | 1.0 | 4.0 | 0.02 | 0.17 | 0.05 | 93 | 1009.8 |
| 20260506034336 | 50 | 120 | 1.0 | 6.0 | 0.02 | 0.18 | 0.05 | 93 | 1009.9 |
| 20260506034227 | 50 | 125 | 1.0 | 7.0 | 0.02 | 0.18 | 0.05 | 93 | 1009.9 |
| 20260506033836 | 50 | 163 | 1.0 | 7.0 | 0.02 | 0.19 | 0.05 | 93 | 1010.0 |
| 20260506033337 | 50 | 160 | 1.0 | 7.0 | 0.02 | 0.20 | 0.05 | 93 | 1010.0 |
| 20260506033227 | 50 | 157 | 1.0 | 7.0 | 0.02 | 0.20 | 0.05 | 93 | 1010.0 |
| 20260506032837 | 50 | 120 | 2.0 | 7.0 | 0.02 | 0.20 | 0.05 | 93 | 1010.1 |
| 20260506032337 | 50 | 97 | 1.0 | 7.0 | 0.02 | 0.21 | 0.05 | 93 | 1010.0 |
| 20260506032227 | 50 | 100 | 1.0 | 5.0 | 0.02 | 0.21 | 0.05 | 93 | 1010.1 |
| 20260506031837 | 50 | 116 | 0.0 | 5.0 | 0.02 | 0.22 | 0.05 | 93 | 1010.1 |
| 20260506031335 | 50 | 151 | 1.0 | 5.0 | 0.02 | 0.23 | 0.05 | 93 | 1010.4 |
| 20260506031227 | 50 | 132 | 1.0 | 5.0 | 0.02 | 0.23 | 0.05 | 93 | 1010.4 |
| 20260506030835 | 50 | 129 | 2.0 | 5.0 | 0.01 | 0.22 | 0.04 | 93 | 1010.4 |
| 20260506030615 | 50 | 157 | 1.0 | 5.0 | 0.01 | 0.23 | 0.04 | 93 | 1010.5 |
| 20260506030228 | 50 | 170 | 1.0 | 5.0 | 0.01 | 0.24 | 0.04 | 93 | 1010.5 |
| 20260506025836 | 50 | 145 | 1.0 | 4.0 | 0.00 | 0.23 | 0.03 | 93 | 1010.6 |
| 20260506025336 | 50 | 131 | 1.0 | 4.0 | 0.00 | 0.24 | 0.03 | 93 | 1010.7 |
| 20260506025226 | 51 | 135 | 1.0 | 4.0 | 0.00 | 0.24 | 0.03 | 93 | 1010.8 |
| 20260506024835 | 51 | 137 | 1.0 | 4.0 | 0.01 | 0.24 | 0.03 | 93 | 1010.8 |
| 20260506024336 | 51 | 94 | 0.0 | 3.0 | 0.01 | 0.25 | 0.03 | 93 | 1010.8 |
| 20260506024227 | 51 | 59 | 1.0 | 3.0 | 0.01 | 0.25 | 0.03 | 93 | 1010.9 |
| 20260506023837 | 50 | 346 | 1.0 | 4.0 | 0.02 | 0.26 | 0.03 | 93 | 1011.0 |
| 20260506023336 | 51 | 329 | 1.0 | 4.0 | 0.02 | 0.27 | 0.03 | 93 | 1010.9 |
| 20260506023227 | 50 | 327 | 1.0 | 4.0 | 0.02 | 0.28 | 0.03 | 93 | 1011.0 |
| 20260506022836 | 50 | 328 | 1.0 | 4.0 | 0.02 | 0.28 | 0.03 | 93 | 1010.9 |
| 20260506022336 | 51 | 321 | 1.0 | 4.0 | 0.02 | 0.28 | 0.03 | 93 | 1010.9 |
| 20260506022227 | 51 | 322 | 1.0 | 4.0 | 0.02 | 0.29 | 0.03 | 93 | 1011.0 |
| 20260506021836 | 51 | 334 | 1.0 | 3.0 | 0.02 | 0.29 | 0.03 | 93 | 1011.2 |
| 20260506021336 | 51 | 43 | 1.0 | 3.0 | 0.02 | 0.30 | 0.03 | 93 | 1011.2 |
| 20260506021228 | 51 | 75 | 1.0 | 3.0 | 0.02 | 0.30 | 0.03 | 93 | 1011.2 |
| 20260506020836 | 51 | 137 | 0.0 | 4.0 | 0.02 | 0.31 | 0.03 | 93 | 1011.4 |
| 20260506020337 | 51 | 142 | 0.0 | 4.0 | 0.02 | 0.31 | 0.03 | 93 | 1011.4 |
| 20260506020227 | 51 | 140 | 1.0 | 4.0 | 0.02 | 0.31 | 0.03 | 93 | 1011.4 |
| 20260506015832 | 51 | 128 | 1.0 | 4.0 | 0.02 | 0.31 | 0.03 | 93 | 1011.5 |
| 20260506015333 | 51 | 137 | 1.0 | 4.0 | 0.02 | 0.31 | 0.03 | 93 | 1011.6 |
| 20260506015226 | 51 | 133 | 1.0 | 4.0 | 0.02 | 0.31 | 0.03 | 93 | 1011.6 |
| 20260506014833 | 51 | 140 | 0.0 | 3.0 | 0.01 | 0.31 | 0.02 | 93 | 1011.6 |
| 20260506014332 | 51 | 131 | 0.0 | 3.0 | 0.01 | 0.31 | 0.02 | 93 | 1011.5 |
| 20260506014228 | 51 | 133 | 0.0 | 3.0 | 0.01 | 0.31 | 0.02 | 93 | 1011.5 |
| 20260506013831 | 51 | 128 | 1.0 | 3.0 | 0.00 | 0.30 | 0.02 | 93 | 1011.5 |
| 20260506013331 | 51 | 119 | 0.0 | 3.0 | 0.00 | 0.30 | 0.02 | 93 | 1011.5 |
| 20260506013225 | 51 | 119 | 0.0 | 3.0 | 0.00 | 0.30 | 0.02 | 93 | 1011.5 |
| 20260506012833 | 51 | 133 | 0.0 | 3.0 | 0.00 | 0.30 | 0.02 | 93 | 1011.6 |
| 20260506012331 | 51 | 144 | 0.0 | 3.0 | 0.01 | 0.30 | 0.02 | 93 | 1011.6 |
| 20260506012226 | 51 | 152 | 1.0 | 3.0 | 0.01 | 0.30 | 0.02 | 93 | 1011.6 |
| 20260506011831 | 51 | 156 | 0.0 | 3.0 | 0.01 | 0.30 | 0.02 | 93 | 1011.6 |
| 20260506011331 | 51 | 152 | 0.0 | 4.0 | 0.01 | 0.30 | 0.02 | 93 | 1011.8 |
| 20260506011225 | 51 | 144 | 0.0 | 4.0 | 0.01 | 0.30 | 0.02 | 93 | 1011.8 |
| 20260506011103 | 51 | 82 | 0.0 | 4.0 | 0.01 | 0.30 | 0.02 | 93 | 1011.8 |
| 20260506010331 | 51 | 86 | 1.0 | 4.0 | 0.01 | 0.30 | 0.02 | 93 | 1012.0 |
| 20260506010223 | 51 | 100 | 1.0 | 4.0 | 0.01 | 0.30 | 0.02 | 93 | 1012.0 |
| 20260506010104 | 51 | 130 | 1.0 | 4.0 | 0.01 | 0.30 | 0.02 | 93 | 1012.1 |
| 20260506005608 | 51 | 131 | 1.0 | 4.0 | 0.01 | 0.30 | 0.02 | 92 | 1012.3 |
| 20260506005223 | 51 | 136 | 1.0 | 4.0 | 0.01 | 0.30 | 0.02 | 92 | 1012.4 |
| 20260506005103 | 51 | 138 | 1.0 | 4.0 | 0.02 | 0.30 | 0.02 | 92 | 1012.4 |
| 20260506004332 | 51 | 130 | 1.0 | 5.0 | 0.02 | 0.30 | 0.02 | 92 | 1012.5 |
| 20260506004224 | 51 | 129 | 1.0 | 5.0 | 0.02 | 0.30 | 0.02 | 92 | 1012.6 |
| 20260506003830 | 51 | 124 | 1.0 | 5.0 | 0.02 | 0.30 | 0.02 | 92 | 1012.7 |
| 20260506003326 | 51 | 123 | 1.0 | 5.0 | 0.02 | 0.30 | 0.02 | 92 | 1012.9 |
| 20260506003222 | 51 | 119 | 1.0 | 5.0 | 0.02 | 0.30 | 0.02 | 92 | 1012.9 |
| 20260506003058 | 51 | 110 | 1.0 | 5.0 | 0.02 | 0.30 | 0.02 | 92 | 1012.9 |
| 20260506002326 | 51 | 98 | 1.0 | 4.0 | 0.01 | 0.29 | 0.01 | 92 | 1012.9 |
| 20260506002222 | 51 | 91 | 1.0 | 4.0 | 0.01 | 0.29 | 0.01 | 92 | 1013.0 |
| 20260506001826 | 51 | 112 | 1.0 | 4.0 | 0.01 | 0.29 | 0.01 | 92 | 1013.1 |
| 20260506001325 | 51 | 133 | 1.0 | 3.0 | 0.01 | 0.29 | 0.01 | 92 | 1013.1 |
| 20260506001222 | 51 | 138 | 1.0 | 3.0 | 0.01 | 0.29 | 0.01 | 92 | 1013.2 |
| 20260506001059 | 51 | 127 | 0.0 | 2.0 | 0.01 | 0.29 | 0.01 | 92 | 1013.2 |
| 20260506000326 | 51 | 29 | 0.0 | 1.0 | 0.01 | 0.29 | 0.01 | 92 | 1013.1 |
| 20260506000223 | 51 | 16 | 0.0 | 1.0 | 0.01 | 0.29 | 0.01 | 92 | 1013.2 |
| 20260506000058 | 51 | 3 | 0.0 | 1.0 | 0.01 | 0.29 | 0.01 | 92 | 1013.2 |
| 20260505235324 | 51 | 2 | 0.0 | 1.0 | 0.01 | 0.29 | 0.01 | 92 | 1013.3 |
| 20260505235223 | 51 | 2 | 0.0 | 1.0 | 0.01 | 0.29 | 0.01 | 92 | 1013.3 |
| 20260505234822 | 51 | 5 | 0.0 | 1.0 | 0.00 | 0.28 | 0.00 | 92 | 1013.3 |
| 20260505234322 | 51 | 18 | 0.0 | 2.0 | 0.00 | 0.28 | 0.00 | 91 | 1013.3 |
| 20260505234221 | 51 | 21 | 0.0 | 2.0 | 0.00 | 0.28 | 0.00 | 91 | 1013.4 |
| 20260505233821 | 51 | 29 | 0.0 | 2.0 | 0.00 | 0.28 | 0.00 | 91 | 1013.3 |
| 20260505233320 | 51 | 24 | 0.0 | 3.0 | 0.00 | 0.28 | 0.00 | 91 | 1013.4 |
| 20260505233221 | 51 | 21 | 0.0 | 3.0 | 0.00 | 0.28 | 0.00 | 91 | 1013.5 |
| 20260505232818 | 51 | 21 | 0.0 | 3.0 | 0.00 | 0.28 | 0.00 | 91 | 1013.7 |
| 20260505232318 | 51 | 82 | 1.0 | 3.0 | 0.00 | 0.28 | 0.00 | 91 | 1013.7 |
| 20260505232221 | 51 | 98 | 1.0 | 3.0 | 0.00 | 0.28 | 0.00 | 91 | 1013.7 |
| 20260505231819 | 51 | 121 | 1.0 | 3.0 | 0.00 | 0.28 | 0.00 | 91 | 1013.7 |
| 20260505231318 | 51 | 123 | 0.0 | 3.0 | 0.00 | 0.28 | 0.00 | 91 | 1013.7 |
| 20260505231220 | 51 | 122 | 0.0 | 3.0 | 0.00 | 0.28 | 0.00 | 91 | 1013.7 |
| 20260505230817 | 51 | 132 | 1.0 | 3.0 | 0.00 | 0.28 | 0.00 | 91 | 1014.0 |
| 20260505230330 | 51 | 124 | 0.0 | 1.0 | 0.00 | 0.28 | 0.00 | 91 | 1014.0 |
| 20260505230325 | 51 | 134 | 0.0 | 3.0 | 0.00 | 0.28 | 0.00 | 91 | 1013.9 |
| 20260505230317 | 51 | 133 | 0.0 | 2.0 | 0.00 | 0.28 | 0.00 | 91 | 1013.9 |
| 20260505225318 | 51 | 121 | 0.0 | 1.0 | 0.00 | 0.28 | 0.00 | 91 | 1013.9 |
| 20260505225221 | 51 | 124 | 0.0 | 1.0 | 0.00 | 0.28 | 0.00 | 91 | 1013.9 |
| 20260505224817 | 51 | 136 | 0.0 | 1.0 | 0.00 | 0.28 | 0.00 | 91 | 1013.9 |
| 20260505224315 | 51 | 144 | 0.0 | 1.0 | 0.00 | 0.28 | 0.00 | 90 | 1013.9 |
| 20260505224221 | 51 | 144 | 0.0 | 1.0 | 0.00 | 0.28 | 0.00 | 90 | 1013.9 |
| 20260505223816 | 51 | 144 | 0.0 | 0.0 | 0.00 | 0.28 | 0.00 | 90 | 1013.9 |
| 20260505223317 | 51 | 144 | 0.0 | 1.0 | 0.00 | 0.28 | 0.00 | 91 | 1013.8 |
| 20260505223221 | 51 | 144 | 0.0 | 1.0 | 0.00 | 0.28 | 0.00 | 91 | 1013.8 |
| 20260505222832 | 51 | 144 | 0.0 | 1.0 | 0.00 | 0.28 | 0.00 | 91 | 1013.9 |
| 20260505222601 | 51 | 147 | 0.0 | 1.0 | 0.00 | 0.28 | 0.00 | 90 | 1013.9 |
| 20260505222315 | 51 | 148 | 0.0 | 1.0 | 0.00 | 0.28 | 0.00 | 90 | 1013.9 |
| 20260505221316 | 51 | 157 | 0.0 | 1.0 | 0.00 | 0.28 | 0.00 | 90 | 1014.1 |
| 20260505221219 | 51 | 151 | 0.0 | 1.0 | 0.00 | 0.28 | 0.00 | 90 | 1014.1 |
| 20260505220816 | 51 | 121 | 0.0 | 2.0 | 0.00 | 0.28 | 0.00 | 90 | 1014.2 |
| 20260505220314 | 51 | 79 | 0.0 | 3.0 | 0.00 | 0.28 | 0.00 | 90 | 1014.2 |
| 20260505220217 | 51 | 80 | 0.0 | 3.0 | 0.00 | 0.28 | 0.00 | 91 | 1014.2 |
| 20260505215813 | 51 | 101 | 0.0 | 3.0 | 0.00 | 0.28 | 0.28 | 91 | 1014.2 |
| 20260505215312 | 52 | 123 | 1.0 | 3.0 | 0.00 | 0.28 | 0.28 | 91 | 1014.3 |
| 20260505215218 | 52 | 123 | 1.0 | 3.0 | 0.00 | 0.28 | 0.28 | 91 | 1014.3 |
| 20260505215039 | 52 | 84 | 1.0 | 3.0 | 0.00 | 0.28 | 0.28 | 91 | 1014.3 |
| 20260505214311 | 52 | 33 | 0.0 | 2.0 | 0.00 | 0.28 | 0.28 | 91 | 1014.3 |
| 20260505214217 | 52 | 34 | 0.0 | 2.0 | 0.00 | 0.28 | 0.28 | 91 | 1014.3 |
| 20260505213813 | 52 | 87 | 0.0 | 2.0 | 0.00 | 0.29 | 0.28 | 91 | 1014.3 |
| 20260505213311 | 52 | 148 | 0.0 | 2.0 | 0.00 | 0.29 | 0.28 | 91 | 1014.3 |
| 20260505213217 | 52 | 156 | 0.0 | 2.0 | 0.00 | 0.29 | 0.28 | 91 | 1014.3 |
| 20260505213044 | 52 | 180 | 0.0 | 1.0 | 0.00 | 0.29 | 0.28 | 91 | 1014.2 |
| 20260505212310 | 52 | 257 | 0.0 | 1.0 | 0.00 | 0.30 | 0.28 | 91 | 1014.3 |
| 20260505212216 | 52 | 267 | 0.0 | 1.0 | 0.00 | 0.30 | 0.28 | 91 | 1014.3 |
| 20260505211810 | 52 | 284 | 0.0 | 0.0 | 0.00 | 0.30 | 0.28 | 91 | 1014.4 |
| 20260505211309 | 52 | 283 | 0.0 | 0.0 | 0.00 | 0.31 | 0.28 | 91 | 1014.4 |
| 20260505211215 | 52 | 283 | 0.0 | 0.0 | 0.00 | 0.31 | 0.28 | 91 | 1014.4 |
| 20260505210810 | 52 | 282 | 0.0 | 0.0 | 0.00 | 0.31 | 0.28 | 91 | 1014.6 |
| 20260505210310 | 52 | 282 | 0.0 | 0.0 | 0.00 | 0.32 | 0.28 | 91 | 1014.6 |
| 20260505210215 | 52 | 282 | 0.0 | 0.0 | 0.00 | 0.33 | 0.28 | 91 | 1014.6 |
| 20260505205810 | 52 | 282 | 0.0 | 0.0 | 0.00 | 0.33 | 0.28 | 91 | 1014.6 |
| 20260505205309 | 52 | 282 | 0.0 | 0.0 | 0.00 | 0.34 | 0.28 | 91 | 1014.7 |
| 20260505205215 | 52 | 282 | 0.0 | 1.0 | 0.00 | 0.34 | 0.28 | 91 | 1014.7 |
| 20260505205046 | 52 | 282 | 0.0 | 1.0 | 0.00 | 0.35 | 0.28 | 91 | 1014.7 |
| 20260505204310 | 52 | 282 | 0.0 | 1.0 | 0.00 | 0.35 | 0.28 | 91 | 1014.7 |
| 20260505204218 | 52 | 283 | 0.0 | 1.0 | 0.00 | 0.35 | 0.28 | 91 | 1014.7 |
| 20260505203814 | 52 | 318 | 0.0 | 1.0 | 0.00 | 0.35 | 0.28 | 91 | 1014.8 |
| 20260505203308 | 52 | 5 | 0.0 | 1.0 | 0.00 | 0.35 | 0.28 | 90 | 1014.7 |
| 20260505203215 | 52 | 9 | 0.0 | 0.0 | 0.00 | 0.35 | 0.28 | 90 | 1014.7 |
| 20260505202808 | 52 | 9 | 0.0 | 0.0 | 0.00 | 0.35 | 0.28 | 90 | 1014.7 |
| 20260505202308 | 52 | 9 | 0.0 | 0.0 | 0.00 | 0.35 | 0.28 | 90 | 1014.7 |
| 20260505202216 | 52 | 9 | 0.0 | 0.0 | 0.00 | 0.35 | 0.28 | 90 | 1014.7 |
| 20260505201809 | 52 | 9 | 0.0 | 0.0 | 0.00 | 0.35 | 0.28 | 90 | 1014.6 |
| 20260505201308 | 52 | 9 | 0.0 | 0.0 | 0.00 | 0.36 | 0.28 | 90 | 1014.6 |
| 20260505201215 | 52 | 9 | 0.0 | 0.0 | 0.00 | 0.36 | 0.28 | 90 | 1014.6 |
| 20260505200806 | 52 | 9 | 0.0 | 0.0 | 0.00 | 0.37 | 0.28 | 90 | 1014.6 |
| 20260505200306 | 52 | 9 | 0.0 | 0.0 | 0.00 | 0.38 | 0.28 | 90 | 1014.5 |
| 20260505200215 | 52 | 9 | 0.0 | 0.0 | 0.00 | 0.39 | 0.28 | 90 | 1014.5 |
| 20260505195805 | 52 | 9 | 0.0 | 0.0 | 0.00 | 0.40 | 0.28 | 90 | 1014.6 |
| 20260505195306 | 52 | 9 | 0.0 | 1.0 | 0.00 | 0.42 | 0.28 | 89 | 1014.6 |
| 20260505195214 | 52 | 9 | 0.0 | 1.0 | 0.00 | 0.42 | 0.28 | 89 | 1014.6 |
| 20260505194807 | 52 | 9 | 0.0 | 1.0 | 0.00 | 0.43 | 0.28 | 89 | 1014.5 |
| 20260505194307 | 52 | 9 | 0.0 | 1.0 | 0.00 | 0.45 | 0.28 | 89 | 1014.5 |
| 20260505194213 | 52 | 9 | 0.0 | 1.0 | 0.00 | 0.46 | 0.28 | 89 | 1014.5 |
| 20260505193806 | 52 | 8 | 0.0 | 1.0 | 0.00 | 0.46 | 0.28 | 89 | 1014.5 |
| 20260505193306 | 52 | 347 | 0.0 | 1.0 | 0.00 | 0.47 | 0.28 | 89 | 1014.5 |
| 20260505193213 | 52 | 336 | 0.0 | 1.0 | 0.00 | 0.47 | 0.28 | 89 | 1014.4 |
| 20260505192806 | 53 | 289 | 0.0 | 1.0 | 0.00 | 0.48 | 0.28 | 89 | 1014.5 |
| 20260505192539 | 53 | 272 | 0.0 | 0.0 | 0.00 | 0.49 | 0.28 | 88 | 1014.4 |
| 20260505192212 | 53 | 272 | 0.0 | 0.0 | 0.00 | 0.49 | 0.28 | 88 | 1014.4 |
| 20260505191806 | 53 | 272 | 0.0 | 1.0 | 0.00 | 0.50 | 0.28 | 88 | 1014.5 |
| 20260505191308 | 53 | 272 | 0.0 | 1.0 | 0.00 | 0.50 | 0.28 | 88 | 1014.5 |
| 20260505191211 | 53 | 272 | 0.0 | 1.0 | 0.00 | 0.50 | 0.28 | 88 | 1014.5 |
| 20260505190806 | 53 | 277 | 0.0 | 1.0 | 0.00 | 0.50 | 0.28 | 88 | 1014.6 |
| 20260505190306 | 53 | 314 | 0.0 | 2.0 | 0.00 | 0.50 | 0.28 | 88 | 1014.5 |
| 20260505190212 | 53 | 321 | 0.0 | 2.0 | 0.00 | 0.50 | 0.28 | 88 | 1014.5 |
| 20260505185806 | 53 | 335 | 0.0 | 2.0 | 0.00 | 0.50 | 0.28 | 88 | 1014.5 |
| 20260505185305 | 53 | 304 | 0.0 | 2.0 | 0.00 | 0.50 | 0.28 | 88 | 1014.4 |
| 20260505185208 | 53 | 297 | 0.0 | 2.0 | 0.00 | 0.50 | 0.28 | 88 | 1014.3 |
| 20260505184806 | 53 | 154 | 0.0 | 2.0 | 0.00 | 0.50 | 0.28 | 88 | 1014.3 |
| 20260505184306 | 53 | 122 | 0.0 | 1.0 | 0.00 | 0.50 | 0.28 | 88 | 1014.3 |
| 20260505184208 | 53 | 122 | 0.0 | 1.0 | 0.00 | 0.50 | 0.28 | 88 | 1014.3 |
| 20260505183805 | 53 | 120 | 0.0 | 1.0 | 0.00 | 0.50 | 0.28 | 88 | 1014.4 |
| 20260505183307 | 53 | 111 | 0.0 | 1.0 | 0.00 | 0.51 | 0.28 | 88 | 1014.5 |
| 20260505183208 | 53 | 109 | 0.0 | 1.0 | 0.00 | 0.51 | 0.28 | 88 | 1014.4 |
| 20260505182807 | 53 | 100 | 0.0 | 1.0 | 0.00 | 0.52 | 0.28 | 87 | 1014.4 |
| 20260505182307 | 53 | 97 | 0.0 | 1.0 | 0.00 | 0.53 | 0.28 | 87 | 1014.4 |
| 20260505182209 | 53 | 95 | 0.0 | 1.0 | 0.00 | 0.53 | 0.28 | 87 | 1014.4 |
| 20260505181807 | 53 | 89 | 0.0 | 1.0 | 0.00 | 0.54 | 0.28 | 87 | 1014.3 |
| 20260505181307 | 53 | 81 | 0.0 | 1.0 | 0.00 | 0.54 | 0.28 | 88 | 1014.3 |
| 20260505181208 | 53 | 81 | 0.0 | 1.0 | 0.00 | 0.55 | 0.28 | 87 | 1014.3 |
| 20260505180807 | 53 | 120 | 0.0 | 1.0 | 0.00 | 0.56 | 0.28 | 87 | 1014.2 |
| 20260505180306 | 53 | 215 | 0.0 | 1.0 | 0.00 | 0.57 | 0.28 | 87 | 1014.1 |
| 20260505180213 | 53 | 220 | 0.0 | 1.0 | 0.00 | 0.57 | 0.28 | 87 | 1014.2 |
| 20260505180043 | 54 | 220 | 0.0 | 1.0 | 0.00 | 0.58 | 0.28 | 86 | 1014.3 |
| 20260505175541 | 54 | 220 | 0.0 | 2.0 | 0.00 | 0.59 | 0.28 | 86 | 1014.3 |
| 20260505175208 | 54 | 221 | 0.0 | 2.0 | 0.00 | 0.59 | 0.28 | 86 | 1014.3 |
| 20260505174807 | 54 | 224 | 0.0 | 2.0 | 0.00 | 0.61 | 0.28 | 86 | 1014.2 |
| 20260505174305 | 54 | 223 | 0.0 | 2.0 | 0.00 | 0.61 | 0.28 | 85 | 1014.1 |
| 20260505174206 | 54 | 220 | 0.0 | 2.0 | 0.00 | 0.61 | 0.28 | 85 | 1014.1 |
| 20260505173806 | 54 | 214 | 0.0 | 6.0 | 0.00 | 0.62 | 0.28 | 85 | 1014.1 |
| 20260505173306 | 54 | 216 | 0.0 | 6.0 | 0.00 | 0.62 | 0.28 | 84 | 1014.1 |
| 20260505173208 | 54 | 219 | 0.0 | 6.0 | 0.00 | 0.63 | 0.28 | 85 | 1014.2 |
| 20260505173035 | 54 | 198 | 1.0 | 6.0 | 0.00 | 0.64 | 0.28 | 85 | 1014.3 |
| 20260505172306 | 54 | 136 | 1.0 | 6.0 | 0.00 | 0.65 | 0.28 | 84 | 1014.3 |
| 20260505172207 | 54 | 131 | 1.0 | 6.0 | 0.00 | 0.65 | 0.28 | 84 | 1014.3 |
| 20260505171806 | 54 | 177 | 1.0 | 3.0 | 0.00 | 0.65 | 0.28 | 83 | 1014.3 |
| 20260505171305 | 54 | 217 | 1.0 | 3.0 | 0.00 | 0.67 | 0.28 | 84 | 1014.2 |
| 20260505171207 | 54 | 225 | 1.0 | 3.0 | 0.00 | 0.67 | 0.28 | 84 | 1014.2 |
| 20260505170805 | 54 | 242 | 1.0 | 2.0 | 0.00 | 0.69 | 0.28 | 85 | 1014.4 |
| 20260505170305 | 55 | 243 | 0.0 | 3.0 | 0.00 | 0.70 | 0.28 | 85 | 1014.3 |
| 20260505170207 | 55 | 225 | 0.0 | 3.0 | 0.00 | 0.70 | 0.28 | 85 | 1014.3 |
| 20260505165805 | 55 | 181 | 0.0 | 3.0 | 0.00 | 0.71 | 0.28 | 85 | 1014.4 |
| 20260505165306 | 55 | 221 | 0.0 | 5.0 | 0.00 | 0.72 | 0.28 | 85 | 1014.4 |
| 20260505165205 | 55 | 229 | 1.0 | 5.0 | 0.00 | 0.72 | 0.28 | 86 | 1014.4 |
| 20260505164806 | 55 | 241 | 1.0 | 5.0 | 0.00 | 0.73 | 0.28 | 85 | 1014.4 |
| 20260505164536 | 55 | 235 | 1.0 | 5.0 | 0.00 | 0.74 | 0.28 | 84 | 1014.6 |
| 20260505164205 | 55 | 232 | 1.0 | 5.0 | 0.00 | 0.74 | 0.28 | 84 | 1014.6 |
| 20260505163805 | 55 | 195 | 1.0 | 5.0 | 0.00 | 0.74 | 0.28 | 83 | 1014.5 |
| 20260505163305 | 55 | 76 | 1.0 | 3.0 | 0.00 | 0.75 | 0.28 | 83 | 1014.6 |
| 20260505163205 | 55 | 54 | 0.0 | 3.0 | 0.00 | 0.75 | 0.28 | 83 | 1014.6 |
| 20260505163037 | 55 | 0 | 1.0 | 6.0 | 0.00 | 0.75 | 0.28 | 83 | 1014.7 |
| 20260505162307 | 55 | 322 | 1.0 | 6.0 | 0.00 | 0.75 | 0.28 | 82 | 1014.6 |
| 20260505162205 | 55 | 320 | 1.0 | 6.0 | 0.00 | 0.75 | 0.28 | 82 | 1014.7 |
| 20260505161804 | 55 | 322 | 1.0 | 6.0 | 0.00 | 0.75 | 0.28 | 83 | 1014.7 |
| 20260505161302 | 55 | 278 | 1.0 | 6.0 | 0.00 | 0.76 | 0.28 | 82 | 1014.6 |
| 20260505161202 | 55 | 245 | 1.0 | 6.0 | 0.00 | 0.76 | 0.28 | 82 | 1014.6 |
| 20260505160803 | 55 | 212 | 0.0 | 3.0 | 0.00 | 0.76 | 0.28 | 82 | 1014.4 |
| 20260505160302 | 55 | 170 | 1.0 | 3.0 | 0.00 | 0.76 | 0.28 | 82 | 1014.4 |
| 20260505160203 | 55 | 167 | 1.0 | 3.0 | 0.00 | 0.76 | 0.28 | 83 | 1014.4 |
| 20260505153302 | 55 | 62 | 1.0 | 3.0 | 0.00 | 0.76 | 0.28 | 83 | 1014.3 |
| 20260505153202 | 55 | 58 | 1.0 | 3.0 | 0.00 | 0.76 | 0.28 | 83 | 1014.3 |
| 20260505152803 | 55 | 69 | 0.0 | 2.0 | 0.00 | 0.76 | 0.28 | 82 | 1014.4 |
| 20260505152533 | 55 | 71 | 0.0 | 3.0 | 0.00 | 0.76 | 0.28 | 81 | 1014.4 |
| 20260505152202 | 55 | 67 | 0.0 | 3.0 | 0.00 | 0.76 | 0.28 | 81 | 1014.4 |
| 20260505151759 | 55 | 36 | 0.0 | 3.0 | 0.00 | 0.76 | 0.28 | 82 | 1014.4 |
| 20260505151257 | 55 | 53 | 0.0 | 3.0 | 0.00 | 0.76 | 0.28 | 82 | 1014.4 |
| 20260505151202 | 55 | 62 | 0.0 | 3.0 | 0.00 | 0.76 | 0.28 | 82 | 1014.4 |
| 20260505150756 | 55 | 108 | 1.0 | 3.0 | 0.00 | 0.76 | 0.28 | 81 | 1014.5 |
| 20260505150256 | 55 | 127 | 0.0 | 3.0 | 0.00 | 0.76 | 0.28 | 81 | 1014.4 |
| 20260505150203 | 55 | 127 | 0.0 | 3.0 | 0.00 | 0.76 | 0.28 | 81 | 1014.5 |
| 20260505140250 | 55 | 173 | 0.0 | 2.0 | 0.00 | 0.77 | 0.28 | 81 | 1014.9 |
| 20260505140201 | 55 | 179 | 0.0 | 2.0 | 0.00 | 0.77 | 0.28 | 81 | 1015.0 |
| 20260505130200 | 54 | 24 | 0.0 | 2.0 | 0.00 | 0.79 | 0.28 | 84 | 1015.1 |
| 20260505124747 | 53 | 51 | 0.0 | 2.0 | 0.00 | 0.79 | 0.28 | 83 | 1015.2 |
| 20260505124513 | 53 | 69 | 0.0 | 3.0 | 0.00 | 0.79 | 0.28 | 82 | 1015.1 |
| 20260505124158 | 54 | 74 | 0.0 | 3.0 | 0.00 | 0.79 | 0.28 | 82 | 1015.2 |
| 20260505123741 | 54 | 107 | 0.0 | 3.0 | 0.00 | 0.79 | 0.28 | 81 | 1015.2 |
| 20260505123242 | 54 | 157 | 0.0 | 3.0 | 0.00 | 0.79 | 0.28 | 81 | 1015.2 |
| 20260505123158 | 54 | 160 | 0.0 | 3.0 | 0.00 | 0.79 | 0.28 | 82 | 1015.1 |
| 20260505122739 | 54 | 146 | 0.0 | 3.0 | 0.00 | 0.79 | 0.28 | 81 | 1015.2 |
| 20260505122511 | 54 | 137 | 0.0 | 3.0 | 0.00 | 0.80 | 0.28 | 82 | 1015.3 |
| 20260505122158 | 54 | 136 | 0.0 | 3.0 | 0.00 | 0.80 | 0.28 | 82 | 1015.3 |
| 20260505121739 | 54 | 134 | 0.0 | 3.0 | 0.00 | 0.80 | 0.28 | 82 | 1015.3 |
| 20260505121238 | 53 | 134 | 1.0 | 3.0 | 0.00 | 0.80 | 0.28 | 81 | 1015.2 |
| 20260505121159 | 54 | 132 | 1.0 | 3.0 | 0.00 | 0.80 | 0.28 | 81 | 1015.3 |
| 20260505120738 | 54 | 134 | 0.0 | 3.0 | 0.00 | 0.80 | 0.28 | 83 | 1015.2 |
| 20260505120508 | 53 | 137 | 1.0 | 3.0 | 0.00 | 0.80 | 0.28 | 81 | 1015.2 |
| 20260505120159 | 53 | 142 | 1.0 | 3.0 | 0.00 | 0.80 | 0.28 | 81 | 1015.3 |
| 20260505115737 | 53 | 154 | 1.0 | 3.0 | 0.00 | 0.80 | 0.28 | 81 | 1015.2 |
| 20260505115244 | 53 | 137 | 0.0 | 2.0 | 0.00 | 0.80 | 0.28 | 82 | 1015.2 |
| 20260505115237 | 53 | 150 | 0.0 | 3.0 | 0.00 | 0.80 | 0.28 | 82 | 1015.3 |
| 20260505115231 | 53 | 148 | 0.0 | 2.0 | 0.00 | 0.80 | 0.28 | 82 | 1015.2 |
| 20260505114236 | 53 | 137 | 0.0 | 2.0 | 0.00 | 0.80 | 0.28 | 82 | 1015.5 |
| 20260505114156 | 53 | 136 | 0.0 | 2.0 | 0.00 | 0.80 | 0.28 | 82 | 1015.3 |
| 20260505113744 | 53 | 144 | 0.0 | 2.0 | 0.00 | 0.80 | 0.28 | 81 | 1015.3 |
| 20260505113740 | 53 | 146 | 0.0 | 2.0 | 0.00 | 0.80 | 0.28 | 80 | 1015.3 |
| 20260505113156 | 53 | 150 | 0.0 | 2.0 | 0.00 | 0.80 | 0.28 | 81 | 1015.3 |
| 20260505112736 | 53 | 148 | 0.0 | 2.0 | 0.00 | 0.80 | 0.28 | 81 | 1015.3 |
| 20260505112513 | 53 | 164 | 0.0 | 2.0 | 0.00 | 0.80 | 0.28 | 80 | 1015.3 |
| 20260505112156 | 53 | 160 | 0.0 | 2.0 | 0.00 | 0.80 | 0.28 | 81 | 1015.5 |
| 20260505112009 | 53 | 167 | 0.0 | 2.0 | 0.00 | 0.80 | 0.28 | 80 | 1015.5 |
| 20260505111235 | 53 | 170 | 0.0 | 2.0 | 0.00 | 0.80 | 0.28 | 83 | 1015.6 |
| 20260505111157 | 53 | 173 | 0.0 | 2.0 | 0.00 | 0.80 | 0.28 | 83 | 1015.6 |
| 20260505111003 | 52 | 197 | 0.0 | 2.0 | 0.00 | 0.80 | 0.28 | 81 | 1015.6 |
| 20260505110236 | 52 | 222 | 0.0 | 2.0 | 0.00 | 0.80 | 0.28 | 82 | 1015.6 |
| 20260505110157 | 52 | 223 | 0.0 | 2.0 | 0.00 | 0.80 | 0.28 | 82 | 1015.6 |
| 20260505102157 | 51 | 140 | 0.0 | 2.0 | 0.01 | 0.80 | 0.28 | 87 | 1015.5 |
| 20260505101736 | 50 | 141 | 0.0 | 3.0 | 0.01 | 0.80 | 0.28 | 87 | 1015.3 |
| 20260505101236 | 50 | 145 | 0.0 | 3.0 | 0.01 | 0.80 | 0.28 | 88 | 1015.6 |
| 20260505101158 | 50 | 141 | 0.0 | 4.0 | 0.01 | 0.80 | 0.28 | 88 | 1015.3 |
| 20260505100740 | 50 | 124 | 0.0 | 4.0 | 0.01 | 0.80 | 0.28 | 88 | 1015.6 |
| 20260505100235 | 50 | 115 | 1.0 | 4.0 | 0.01 | 0.80 | 0.28 | 89 | 1015.6 |
| 20260505100157 | 50 | 116 | 1.0 | 4.0 | 0.01 | 0.80 | 0.28 | 89 | 1015.6 |
| 20260505095737 | 50 | 130 | 1.0 | 4.0 | 0.01 | 0.80 | 0.28 | 89 | 1015.6 |
| 20260505095504 | 50 | 139 | 1.0 | 4.0 | 0.01 | 0.80 | 0.28 | 88 | 1015.6 |
| 20260505095158 | 50 | 139 | 1.0 | 4.0 | 0.01 | 0.80 | 0.28 | 88 | 1015.6 |
| 20260505094734 | 50 | 141 | 1.0 | 4.0 | 0.01 | 0.80 | 0.28 | 88 | 1015.6 |
| 20260505094234 | 50 | 133 | 1.0 | 4.0 | 0.01 | 0.80 | 0.28 | 88 | 1015.5 |
| 20260505094157 | 50 | 129 | 1.0 | 4.0 | 0.01 | 0.80 | 0.28 | 88 | 1015.3 |
| 20260505094002 | 50 | 132 | 1.0 | 4.0 | 0.00 | 0.80 | 0.28 | 88 | 1015.5 |
| 20260505093231 | 50 | 39 | 1.0 | 4.0 | 0.00 | 0.80 | 0.28 | 88 | 1015.5 |
| 20260505093156 | 50 | 37 | 1.0 | 4.0 | 0.00 | 0.80 | 0.28 | 87 | 1015.3 |
| 20260505092732 | 50 | 65 | 1.0 | 3.0 | 0.00 | 0.80 | 0.28 | 87 | 1015.5 |
| 20260505092231 | 50 | 129 | 1.0 | 3.0 | 0.00 | 0.80 | 0.28 | 85 | 1015.2 |
| 20260505092157 | 50 | 130 | 1.0 | 3.0 | 0.00 | 0.80 | 0.28 | 85 | 1015.3 |
| 20260505091731 | 50 | 187 | 1.0 | 3.0 | 0.00 | 0.80 | 0.28 | 85 | 1015.2 |
| 20260505091230 | 50 | 258 | 0.0 | 3.0 | 0.00 | 0.80 | 0.28 | 85 | 1015.2 |
| 20260505091157 | 50 | 261 | 0.0 | 3.0 | 0.00 | 0.80 | 0.28 | 85 | 1015.1 |
| 20260505090731 | 50 | 258 | 0.0 | 3.0 | 0.00 | 0.80 | 0.28 | 85 | 1015.2 |
| 20260505090229 | 50 | 251 | 1.0 | 3.0 | 0.00 | 0.80 | 0.28 | 85 | 1015.2 |
| 20260505090158 | 50 | 250 | 1.0 | 3.0 | 0.00 | 0.80 | 0.28 | 85 | 1015.2 |
| 20260505085728 | 50 | 247 | 1.0 | 3.0 | 0.00 | 0.80 | 0.28 | 85 | 1015.1 |
| 20260505085228 | 50 | 253 | 1.0 | 5.0 | 0.00 | 0.80 | 0.28 | 84 | 1015.1 |
| 20260505085157 | 50 | 254 | 1.0 | 5.0 | 0.00 | 0.80 | 0.28 | 84 | 1015.1 |
| 20260505084957 | 50 | 263 | 0.0 | 5.0 | 0.00 | 0.80 | 0.28 | 85 | 1015.0 |
| 20260505084228 | 49 | 264 | 1.0 | 6.0 | 0.00 | 0.80 | 0.28 | 85 | 1014.9 |
| 20260505084157 | 49 | 263 | 1.0 | 6.0 | 0.00 | 0.80 | 0.28 | 85 | 1014.9 |
| 20260505083726 | 49 | 263 | 1.0 | 6.0 | 0.00 | 0.80 | 0.28 | 84 | 1014.8 |
| 20260505083226 | 49 | 262 | 2.0 | 6.0 | 0.00 | 0.80 | 0.28 | 85 | 1014.8 |
| 20260505083156 | 49 | 262 | 2.0 | 6.0 | 0.00 | 0.80 | 0.28 | 85 | 1014.8 |
| 20260505082726 | 49 | 259 | 3.0 | 6.0 | 0.00 | 0.80 | 0.28 | 84 | 1014.8 |
| 20260505082225 | 49 | 257 | 2.0 | 5.0 | 0.00 | 0.80 | 0.28 | 85 | 1014.8 |
| 20260505082158 | 49 | 256 | 2.0 | 5.0 | 0.00 | 0.80 | 0.28 | 86 | 1014.8 |
| 20260505081726 | 49 | 252 | 1.0 | 5.0 | 0.00 | 0.80 | 0.28 | 86 | 1014.7 |
| 20260505081225 | 49 | 252 | 1.0 | 4.0 | 0.00 | 0.80 | 0.28 | 86 | 1014.7 |
| 20260505081157 | 49 | 252 | 1.0 | 4.0 | 0.00 | 0.80 | 0.28 | 86 | 1014.7 |
| 20260505080726 | 49 | 251 | 2.0 | 4.0 | 0.00 | 0.80 | 0.28 | 87 | 1014.8 |
| 20260505080226 | 49 | 256 | 2.0 | 5.0 | 0.00 | 0.80 | 0.28 | 87 | 1014.8 |
| 20260505080157 | 49 | 257 | 2.0 | 5.0 | 0.00 | 0.80 | 0.28 | 87 | 1014.9 |
| 20260505075727 | 49 | 267 | 2.0 | 6.0 | 0.00 | 0.80 | 0.28 | 87 | 1014.7 |
| 20260505075723 | 49 | 259 | 2.0 | 6.0 | 0.00 | 0.80 | 0.28 | 87 | 1014.7 |
| 20260505075157 | 49 | 258 | 2.0 | 6.0 | 0.00 | 0.80 | 0.28 | 87 | 1014.7 |
| 20260505074726 | 49 | 249 | 3.0 | 7.0 | 0.00 | 0.80 | 0.28 | 87 | 1014.7 |
| 20260505074226 | 49 | 257 | 2.0 | 7.0 | 0.00 | 0.80 | 0.28 | 86 | 1014.8 |
| 20260505074157 | 49 | 259 | 2.0 | 7.0 | 0.00 | 0.80 | 0.28 | 86 | 1014.8 |
| 20260505073725 | 49 | 268 | 2.0 | 7.0 | 0.00 | 0.80 | 0.28 | 85 | 1014.6 |
| 20260505073226 | 48 | 266 | 2.0 | 7.0 | 0.00 | 0.80 | 0.28 | 84 | 1014.7 |
| 20260505073156 | 48 | 267 | 2.0 | 7.0 | 0.00 | 0.80 | 0.28 | 84 | 1014.7 |
| 20260505072725 | 48 | 272 | 2.0 | 6.0 | 0.00 | 0.80 | 0.28 | 86 | 1014.7 |
| 20260505072226 | 48 | 275 | 2.0 | 5.0 | 0.01 | 0.80 | 0.28 | 86 | 1014.7 |
| 20260505072157 | 48 | 274 | 2.0 | 5.0 | 0.01 | 0.80 | 0.28 | 85 | 1014.7 |
| 20260505071735 | 48 | 273 | 1.0 | 7.0 | 0.01 | 0.80 | 0.28 | 85 | 1014.7 |
| 20260505071730 | 48 | 262 | 1.0 | 6.0 | 0.01 | 0.80 | 0.28 | 85 | 1014.7 |
| 20260505071158 | 48 | 274 | 1.0 | 7.0 | 0.01 | 0.80 | 0.28 | 85 | 1014.6 |
| 20260505070724 | 48 | 285 | 2.0 | 7.0 | 0.01 | 0.80 | 0.28 | 84 | 1014.6 |
| 20260505070224 | 48 | 279 | 2.0 | 7.0 | 0.01 | 0.80 | 0.28 | 83 | 1014.7 |
| 20260505070157 | 48 | 279 | 2.0 | 7.0 | 0.01 | 0.80 | 0.28 | 83 | 1014.7 |
| 20260505065724 | 48 | 289 | 2.0 | 8.0 | 0.01 | 0.80 | 0.28 | 82 | 1014.7 |
| 20260505065225 | 48 | 286 | 1.0 | 8.0 | 0.01 | 0.80 | 0.28 | 84 | 1014.8 |
| 20260505065156 | 48 | 287 | 1.0 | 8.0 | 0.01 | 0.80 | 0.28 | 84 | 1014.8 |
| 20260505064722 | 48 | 278 | 2.0 | 8.0 | 0.01 | 0.80 | 0.28 | 83 | 1014.7 |
| 20260505064220 | 48 | 276 | 4.0 | 8.0 | 0.01 | 0.80 | 0.28 | 83 | 1014.7 |
| 20260505064157 | 48 | 274 | 4.0 | 8.0 | 0.01 | 0.80 | 0.28 | 83 | 1014.7 |
| 20260505063719 | 48 | 263 | 3.0 | 7.0 | 0.01 | 0.80 | 0.28 | 84 | 1014.7 |
| 20260505063220 | 48 | 258 | 2.0 | 5.0 | 0.01 | 0.80 | 0.28 | 87 | 1014.8 |
| 20260505063157 | 48 | 258 | 2.0 | 5.0 | 0.01 | 0.80 | 0.28 | 87 | 1014.8 |
| 20260505062944 | 47 | 260 | 1.0 | 5.0 | 0.01 | 0.80 | 0.28 | 87 | 1014.6 |
| 20260505062216 | 47 | 262 | 0.0 | 4.0 | 0.00 | 0.79 | 0.27 | 88 | 1014.7 |
| 20260505062159 | 47 | 262 | 0.0 | 4.0 | 0.00 | 0.79 | 0.27 | 88 | 1014.8 |
| 20260505061716 | 47 | 270 | 0.0 | 9.0 | 0.00 | 0.79 | 0.27 | 87 | 1014.7 |
| 20260505061216 | 47 | 283 | 1.0 | 9.0 | 0.00 | 0.79 | 0.27 | 86 | 1014.6 |
| 20260505061157 | 47 | 285 | 1.0 | 9.0 | 0.00 | 0.79 | 0.27 | 86 | 1014.6 |
| 20260505060722 | 47 | 287 | 3.0 | 9.0 | 0.00 | 0.79 | 0.27 | 84 | 1014.6 |
| 20260505060717 | 47 | 282 | 2.0 | 9.0 | 0.00 | 0.79 | 0.27 | 85 | 1014.6 |
| 20260505060157 | 47 | 285 | 3.0 | 9.0 | 0.00 | 0.79 | 0.27 | 84 | 1014.6 |
| 20260505055715 | 47 | 295 | 2.0 | 9.0 | 0.00 | 0.79 | 0.27 | 85 | 1014.7 |
| 20260505055215 | 47 | 288 | 4.0 | 9.0 | 0.00 | 0.79 | 0.27 | 84 | 1014.7 |
| 20260505055156 | 47 | 288 | 4.0 | 9.0 | 0.00 | 0.79 | 0.27 | 84 | 1014.7 |
| 20260505054716 | 47 | 280 | 4.0 | 9.0 | 0.00 | 0.79 | 0.27 | 84 | 1014.8 |
| 20260505054216 | 47 | 281 | 3.0 | 8.0 | 0.00 | 0.79 | 0.27 | 84 | 1014.8 |
| 20260505054158 | 47 | 281 | 3.0 | 8.0 | 0.00 | 0.79 | 0.27 | 84 | 1014.8 |
| 20260505053715 | 46 | 295 | 2.0 | 7.0 | 0.01 | 0.79 | 0.27 | 84 | 1014.7 |
| 20260505053215 | 46 | 294 | 3.0 | 7.0 | 0.01 | 0.79 | 0.27 | 85 | 1014.8 |
| 20260505053157 | 46 | 294 | 3.0 | 7.0 | 0.01 | 0.79 | 0.27 | 85 | 1014.8 |